Time,TemperatureF,DewpointF,PressureIn,WindDirection,WindDirectionDegrees,WindSpeedMPH,WindSpeedGustMPH,Humidity,HourlyPrecipIn,Conditions,Clouds,dailyrainin,SoftwareType,DateUTC
2013-01-28 00:29:00,37.8,37.0,29.82,WNW,287,0.0,0.0,97,0.00,,---,0.00,VWS V14.01,2013-01-28 06:29:00,
2013-01-28 00:59:00,37.7,36.9,29.82,WNW,287,0.0,0.0,97,0.00,,---,0.00,VWS V14.01,2013-01-28 06:59:00,
2013-01-28 01:29:00,37.6,36.8,29.83,WNW,287,0.0,0.0,97,0.00,,---,0.00,VWS V14.01,2013-01-28 07:29:00,
2013-01-28 01:59:00,37.6,36.8,29.83,WNW,287,0.0,0.0,97,0.00,,---,0.00,VWS V14.01,2013-01-28 07:59:00,
2013-01-28 02:29:00,37.5,36.7,29.83,WNW,287,0.0,0.0,97,0.00,,---,0.00,VWS V14.01,2013-01-28 08:29:00,
2013-01-28 02:59:00,37.3,36.5,29.83,WNW,287,0.0,0.0,97,0.00,,---,0.00,VWS V14.01,2013-01-28 08:59:00,
2013-01-28 03:29:00,36.9,36.1,29.83,WNW,287,0.0,0.0,97,0.00,,---,0.00,VWS V14.01,2013-01-28 09:29:00,
2013-01-28 03:59:00,36.8,36.0,29.82,WNW,287,0.0,0.0,97,0.00,,---,0.00,VWS V14.01,2013-01-28 09:59:00,
2013-01-28 04:29:00,36.2,35.4,29.83,WNW,287,0.0,0.0,97,0.00,,---,0.00,VWS V14.01,2013-01-28 10:29:00,
2013-01-28 04:59:00,36.0,35.2,29.83,WNW,287,0.0,0.0,97,0.00,,---,0.00,VWS V14.01,2013-01-28 10:59:00,
2013-01-28 05:29:00,35.9,35.1,29.83,WNW,287,0.0,0.0,97,0.00,,---,0.00,VWS V14.01,2013-01-28 11:29:00,
2013-01-28 05:59:00,35.6,34.8,29.83,South,172,0.0,0.0,97,0.00,,---,0.00,VWS V14.01,2013-01-28 11:59:00,
2013-01-28 06:29:00,35.3,34.5,29.83,South,172,0.0,0.0,97,0.00,,---,0.00,VWS V14.01,2013-01-28 12:29:00,
2013-01-28 06:59:00,34.8,34.0,29.85,SSE,167,0.0,0.0,97,0.00,,---,0.00,VWS V14.01,2013-01-28 12:59:00,
2013-01-28 07:29:00,34.6,33.8,29.86,SE,140,0.0,0.0,97,0.00,,---,0.00,VWS V14.01,2013-01-28 13:29:00,
2013-01-28 07:59:00,34.4,33.6,29.87,SE,139,0.0,0.0,97,0.00,,---,0.00,VWS V14.01,2013-01-28 13:59:00,
2013-01-28 08:29:00,34.1,33.3,29.86,SE,128,0.0,0.0,97,0.00,,---,0.00,VWS V14.01,2013-01-28 14:29:00,
2013-01-28 08:59:00,34.1,33.3,29.85,ESE,121,0.0,0.0,97,0.00,,---,0.00,VWS V14.01,2013-01-28 14:59:00,
2013-01-28 09:29:00,33.7,32.9,29.83,ESE,114,0.0,0.0,97,0.00,,---,0.00,VWS V14.01,2013-01-28 15:29:00,
2013-01-28 09:59:00,34.4,33.6,29.83,ESE,108,0.0,0.0,97,0.00,,---,0.00,VWS V14.01,2013-01-28 15:59:00,
2013-01-28 10:29:00,34.6,33.8,29.84,ENE,67,0.0,0.0,97,0.00,,---,0.00,VWS V14.01,2013-01-28 16:29:00,
2013-01-28 10:59:00,35.7,34.9,29.83,ENE,67,0.0,0.0,97,0.01,,---,0.01,VWS V14.01,2013-01-28 16:59:00,
2013-01-28 11:29:00,36.4,35.6,29.82,ENE,67,0.0,0.0,97,0.01,,---,0.01,VWS V14.01,2013-01-28 17:29:00,
2013-01-28 11:59:00,36.6,36.1,29.80,ENE,67,0.0,0.0,98,0.01,,---,0.01,VWS V14.01,2013-01-28 17:59:00,
2013-01-28 12:59:00,37.9,37.4,29.74,ENE,67,0.0,0.0,98,0.00,,---,0.01,VWS V14.01,2013-01-28 18:59:00,
2013-01-28 13:29:00,38.5,38.0,29.72,ENE,67,0.0,0.0,98,0.00,,---,0.01,VWS V14.01,2013-01-28 19:29:00,
2013-01-28 13:59:00,39.3,38.8,29.70,ENE,67,0.0,0.0,98,0.00,,---,0.01,VWS V14.01,2013-01-28 19:59:00,
2013-01-28 14:29:00,40.7,40.2,29.69,ENE,67,0.0,0.0,98,0.00,,---,0.01,VWS V14.01,2013-01-28 20:29:00,
2013-01-28 14:59:00,42.0,41.5,29.68,ENE,67,0.0,0.0,98,0.00,,---,0.01,VWS V14.01,2013-01-28 20:59:00,
2013-01-28 15:29:00,43.2,42.7,29.67,East,82,0.0,0.0,98,0.00,,---,0.01,VWS V14.01,2013-01-28 21:29:00,
2013-01-28 15:59:00,43.3,42.8,29.66,East,82,0.0,0.0,98,0.00,,---,0.01,VWS V14.01,2013-01-28 21:59:00,
2013-01-28 16:29:00,43.6,43.1,29.65,East,82,0.0,0.0,98,0.00,,---,0.01,VWS V14.01,2013-01-28 22:29:00,
2013-01-28 16:59:00,43.8,43.3,29.64,East,82,0.0,0.0,98,0.00,,---,0.01,VWS V14.01,2013-01-28 22:59:00,
2013-01-28 17:29:00,43.8,43.3,29.62,East,82,0.0,0.0,98,0.00,,---,0.01,VWS V14.01,2013-01-28 23:29:00,
2013-01-28 17:59:00,44.1,43.6,29.63,East,82,0.0,0.0,98,0.00,,---,0.01,VWS V14.01,2013-01-28 23:59:00,
2013-01-28 18:29:00,44.2,43.7,29.62,East,82,0.0,0.0,98,0.00,,---,0.01,VWS V14.01,2013-01-29 00:29:00,
2013-01-28 18:59:00,44.7,44.2,29.61,East,82,0.0,0.0,98,0.00,,---,0.01,VWS V14.01,2013-01-29 00:59:00,
2013-01-28 19:29:00,44.4,43.9,29.61,East,82,0.0,0.0,98,0.00,,---,0.01,VWS V14.01,2013-01-29 01:29:00,
2013-01-28 19:59:00,44.2,43.7,29.60,East,80,0.0,0.0,98,0.00,,---,0.01,VWS V14.01,2013-01-29 01:59:00,
2013-01-28 20:29:00,43.3,42.8,29.59,East,80,0.0,0.0,98,0.00,,---,0.01,VWS V14.01,2013-01-29 02:29:00,
2013-01-28 20:59:00,42.4,41.9,29.58,NE,45,0.0,0.0,98,0.00,,---,0.01,VWS V14.01,2013-01-29 02:59:00,
2013-01-28 21:29:00,41.9,41.4,29.58,NE,45,0.0,0.0,98,0.00,,---,0.01,VWS V14.01,2013-01-29 03:29:00,
2013-01-28 21:59:00,41.4,40.9,29.57,North,9,0.0,0.0,98,0.00,,---,0.01,VWS V14.01,2013-01-29 03:59:00,
2013-01-28 22:29:00,41.1,40.6,29.57,NW,315,0.0,0.0,98,0.00,,---,0.01,VWS V14.01,2013-01-29 04:29:00,
2013-01-28 22:59:00,41.1,40.6,29.55,WNW,288,0.0,0.0,98,0.00,,---,0.01,VWS V14.01,2013-01-29 04:59:00,
2013-01-28 23:29:00,41.2,40.7,29.56,WNW,288,0.0,0.0,98,0.00,,---,0.01,VWS V14.01,2013-01-29 05:29:00,
2013-01-28 23:59:00,41.1,40.6,29.54,WNW,288,0.0,0.0,98,0.00,,---,0.01,VWS V14.01,2013-01-29 05:59:00,